Refine Search
Year Filed

2013 ×

Court

Rhode Island ×

Click on desired case number or refine your search to continue

Case TitleCourtCase NoChpDate FiledClosedDisposition
Neighborhood Development, LLCRhode Island1:13-bk-10560703/06/2013
Vision Adventures, LLCRhode Island1:13-bk-10660703/17/201310/24/2018Discharge Not Applicable
Baywatch R.I. Marine Towing And Rescue, Inc.Rhode Island1:13-bk-10487702/28/201301/06/2014Discharge Not Applicable
Able Home Improvements, Inc.Rhode Island1:13-bk-11994707/29/201311/04/2013Discharge Not Applicable
SARKISIAN LLCRhode Island1:13-bk-12393709/06/2013
LoveGov, Inc.Rhode Island1:13-bk-11337705/20/201306/13/2014Discharge Not Applicable
DM Real Estate Solutions LLCRhode Island1:13-bk-12885711/01/2013
SWA Development, LLCRhode Island1:13-bk-10704703/21/201304/15/2013Dismissed for Failure to File Information 03/29/2013
Coastal Colors LLCRhode Island1:13-bk-10008701/02/201310/10/2013Discharge Not Applicable
Tyler Truck Service Inc.Rhode Island1:13-bk-10390702/18/2013
McConaughey Associates, Inc.Rhode Island1:13-bk-12733710/18/2013
Trinity Tabernacle, Inc.Rhode Island1:13-bk-12284708/27/2013
Cumberland Seafood, Inc.Rhode Island1:13-bk-10418702/21/201306/07/2013Discharge Not Applicable
Pizza Caldo LLCRhode Island1:13-bk-12099708/07/201312/04/2013Discharge Not Applicable
Crown Mortgage Corp.Rhode Island1:13-bk-12976711/14/2013
Sedona Associates, LLCRhode Island1:13-bk-101501101/23/201306/19/2014Dismissed for Other Reason 05/20/2014
Ocean State Asset Management, LLCRhode Island1:13-bk-10367702/14/201306/25/2013Standard Discharge
End Zone Pub & Grille Inc of NarragansettRhode Island1:13-bk-12372709/04/2013
Above All Roofing, Inc.Rhode Island1:13-bk-11039704/22/201308/28/2014Discharge Not Applicable
Back to Life Chiropractic Center, LLCRhode Island1:13-bk-11651706/22/201311/06/2013Discharge Not Applicable
D & A Properties & Home Improvements LLC, a RhodeRhode Island1:13-bk-12075708/02/2013
Commerce Park Management LLCRhode Island1:13-bk-116741106/25/2013
Fredericks Industrial Valve Inc.Rhode Island1:13-bk-12218708/20/2013
International Entrepreneurs CorporationRhode Island1:13-bk-12890711/01/2013
Sterling Swimming Pools, LLCRhode Island1:13-bk-12168708/15/2013
Halden Acquisition Group II, LLCRhode Island1:13-bk-131461112/02/201303/31/2014Dismissed for Other Reason 03/14/2014
DM Real Estate Solutions LLCRhode Island1:13-bk-12472709/19/2013
C BELLA PROPERTIES, LLCRhode Island1:13-bk-12983711/14/201312/24/2013Dismissed for Failure to File Information 12/09/2013